Simultaneous Nadir Overpasses (SNOs) Predictions

Prediction of SNOs between AQUA and NOAA-19 Satellite Orbit:

Table of predicted SNOs for the next 14.0 days since TLE Epoch: 11/20/2011
Index Date Time (AQUA) AQUA Lat,Lon NOAA-19 Lat,Lon Distance(km) Time Diff (sec)
1 11/20/2011 21:03:02 80.56, 128.22 80.07, 129.64 60.68 73
2 11/23/2011 01:07:02 -51.94,-162.40 -51.94,-162.40 0.05 19
3 11/25/2011 05:50:51 -54.50, 127.70 -54.50, 127.69 0.23 40
4 11/27/2011 10:34:51 -56.69, 57.71 -56.69, 57.73 0.78 56
5 11/29/2011 14:32:51 46.83, 174.37 46.82, 174.37 0.23 16
6 12/01/2011 19:17:29 47.38, 103.39 47.38, 103.37 1.56 9




NCC Satellite Simultaneous Nadir Overpasses (SNOs) Prediction Service
